Time,TemperatureF,DewpointF,PressureIn,WindDirection,WindDirectionDegrees,WindSpeedMPH,WindSpeedGustMPH,Humidity,HourlyPrecipIn,Conditions,Clouds,dailyrainin,SoftwareType,DateUTC
2013-05-09 00:04:00,50.2,39.3,30.14,WSW,247,5.4,5.4,66,0.00,,---,0.00,VWS V14.01,2013-05-09 07:04:00,
2013-05-09 00:09:00,50.0,39.1,30.14,WSW,248,5.4,5.8,66,0.00,,---,0.00,VWS V14.01,2013-05-09 07:09:00,
2013-05-09 00:14:00,49.8,38.9,30.14,WSW,242,6.3,7.6,66,0.00,,---,0.00,VWS V14.01,2013-05-09 07:14:00,
2013-05-09 00:20:00,49.6,39.3,30.14,WSW,245,6.3,6.3,68,0.00,,---,0.00,VWS V14.01,2013-05-09 07:20:00,
2013-05-09 00:26:00,49.5,39.2,30.14,WSW,246,5.8,6.3,68,0.00,,---,0.00,VWS V14.01,2013-05-09 07:26:00,
2013-05-09 00:31:00,49.3,39.0,30.14,WSW,250,6.3,8.3,68,0.00,,---,0.00,VWS V14.01,2013-05-09 07:31:00,
2013-05-09 00:37:00,49.3,39.5,30.14,WSW,245,5.8,6.3,69,0.00,,---,0.00,VWS V14.01,2013-05-09 07:37:00,
2013-05-09 00:42:00,49.1,39.4,30.14,WSW,252,5.4,5.8,69,0.00,,---,0.00,VWS V14.01,2013-05-09 07:42:00,
2013-05-09 00:47:00,48.9,39.2,30.14,West,259,5.4,6.3,69,0.00,,---,0.00,VWS V14.01,2013-05-09 07:47:00,
2013-05-09 00:53:00,48.9,39.2,30.14,WSW,251,4.9,5.4,69,0.00,,---,0.00,VWS V14.01,2013-05-09 07:53:00,
2013-05-09 00:58:00,48.9,39.8,30.14,West,270,3.6,5.4,70,0.00,,---,0.00,VWS V14.01,2013-05-09 07:58:00,
2013-05-09 01:04:00,48.9,39.8,30.14,WSW,238,5.8,6.3,70,0.00,,---,0.00,VWS V14.01,2013-05-09 08:04:00,
2013-05-09 01:09:00,48.7,39.6,30.14,WSW,240,3.6,5.4,70,0.00,,---,0.00,VWS V14.01,2013-05-09 08:09:00,
2013-05-09 01:15:00,48.6,39.4,30.14,WSW,257,6.3,7.2,70,0.00,,---,0.00,VWS V14.01,2013-05-09 08:15:00,
2013-05-09 01:20:00,48.6,39.4,30.14,WSW,256,5.8,6.7,70,0.00,,---,0.00,VWS V14.01,2013-05-09 08:20:00,
2013-05-09 01:26:00,48.2,39.1,30.14,WSW,254,5.8,5.8,70,0.00,,---,0.00,VWS V14.01,2013-05-09 08:26:00,
2013-05-09 01:32:00,48.0,39.4,30.14,WSW,255,4.9,5.8,72,0.00,,---,0.00,VWS V14.01,2013-05-09 08:32:00,
2013-05-09 01:37:00,48.0,39.4,30.14,WSW,254,4.9,5.4,72,0.00,,---,0.00,VWS V14.01,2013-05-09 08:37:00,
2013-05-09 01:42:00,47.8,39.3,30.14,West,265,5.8,6.3,72,0.00,,---,0.00,VWS V14.01,2013-05-09 08:42:00,
2013-05-09 01:48:00,47.8,39.3,30.14,WSW,257,6.3,6.3,72,0.00,,---,0.00,VWS V14.01,2013-05-09 08:48:00,
2013-05-09 01:53:00,47.5,38.9,30.14,WSW,251,4.9,6.3,72,0.00,,---,0.00,VWS V14.01,2013-05-09 08:53:00,
2013-05-09 01:58:00,47.5,38.9,30.14,WSW,251,4.9,6.3,72,0.00,,---,0.00,VWS V14.01,2013-05-09 08:58:00,
2013-05-09 02:03:00,47.3,38.7,30.14,WSW,247,4.9,5.4,72,0.00,,---,0.00,VWS V14.01,2013-05-09 09:03:00,
2013-05-09 02:09:00,47.1,38.6,30.14,WSW,246,3.6,4.9,72,0.00,,---,0.00,VWS V14.01,2013-05-09 09:09:00,
2013-05-09 02:15:00,46.9,38.4,30.14,WSW,248,5.8,6.3,72,0.00,,---,0.00,VWS V14.01,2013-05-09 09:15:00,
2013-05-09 02:21:00,47.3,38.7,30.14,SW,236,5.4,5.4,72,0.00,,---,0.00,VWS V14.01,2013-05-09 09:21:00,
2013-05-09 02:26:00,47.3,39.3,30.14,SW,236,5.4,5.4,74,0.00,,---,0.00,VWS V14.01,2013-05-09 09:26:00,
2013-05-09 02:31:00,47.1,39.1,30.14,WSW,241,5.4,5.4,74,0.00,,---,0.00,VWS V14.01,2013-05-09 09:31:00,
2013-05-09 02:37:00,47.1,39.1,30.14,SW,236,4.0,5.4,74,0.00,,---,0.00,VWS V14.01,2013-05-09 09:37:00,
2013-05-09 02:42:00,47.3,39.8,30.14,WSW,237,5.4,6.3,75,0.00,,---,0.00,VWS V14.01,2013-05-09 09:42:00,
2013-05-09 02:48:00,47.3,39.8,30.14,SW,235,2.7,4.0,75,0.00,,---,0.00,VWS V14.01,2013-05-09 09:48:00,
2013-05-09 02:53:00,46.6,38.6,30.14,NNE,33,2.7,3.1,74,0.00,,---,0.00,VWS V14.01,2013-05-09 09:53:00,
2013-05-09 02:59:00,45.5,37.5,30.14,ENE,61,4.0,4.9,74,0.00,,---,0.00,VWS V14.01,2013-05-09 09:59:00,
2013-05-09 03:04:00,45.5,37.5,30.14,ENE,59,0.0,4.0,74,0.00,,---,0.00,VWS V14.01,2013-05-09 10:04:00,
2013-05-09 03:10:00,45.5,38.0,30.14,ENE,59,0.0,0.0,75,0.00,,---,0.00,VWS V14.01,2013-05-09 10:10:00,
2013-05-09 03:15:00,45.5,38.0,30.14,ENE,59,0.0,0.0,75,0.00,,---,0.00,VWS V14.01,2013-05-09 10:15:00,
2013-05-09 03:20:00,45.7,38.2,30.14,ENE,59,0.0,0.0,75,0.00,,---,0.00,VWS V14.01,2013-05-09 10:20:00,
2013-05-09 03:26:00,45.9,38.4,30.14,North,2,0.0,0.0,75,0.00,,---,0.00,VWS V14.01,2013-05-09 10:26:00,
2013-05-09 03:32:00,45.9,38.4,30.14,NNE,14,0.0,0.0,75,0.00,,---,0.00,VWS V14.01,2013-05-09 10:32:00,
2013-05-09 03:37:00,46.0,38.6,30.14,NE,46,0.0,3.6,75,0.00,,---,0.00,VWS V14.01,2013-05-09 10:37:00,
2013-05-09 03:43:00,46.0,38.6,30.14,NNE,27,0.0,0.0,75,0.00,,---,0.00,VWS V14.01,2013-05-09 10:43:00,
2013-05-09 03:49:00,46.2,38.8,30.14,NNE,27,0.0,0.0,75,0.00,,---,0.00,VWS V14.01,2013-05-09 10:49:00,
2013-05-09 03:55:00,46.2,38.8,30.14,NNE,27,0.0,0.0,75,0.00,,---,0.00,VWS V14.01,2013-05-09 10:55:00,
2013-05-09 04:00:00,46.2,38.8,30.14,NNE,27,0.0,0.0,75,0.00,,---,0.00,VWS V14.01,2013-05-09 11:00:00,
2013-05-09 04:06:00,46.4,38.9,30.14,NNE,27,0.0,0.0,75,0.00,,---,0.00,VWS V14.01,2013-05-09 11:06:00,
2013-05-09 04:11:00,46.6,39.1,30.14,NNE,27,0.0,0.0,75,0.00,,---,0.00,VWS V14.01,2013-05-09 11:11:00,
2013-05-09 04:16:00,46.6,39.1,30.14,NNE,13,2.7,4.0,75,0.00,,---,0.00,VWS V14.01,2013-05-09 11:16:00,
2013-05-09 04:22:00,46.6,39.1,30.14,North,0,3.1,3.6,75,0.00,,---,0.00,VWS V14.01,2013-05-09 11:22:00,
2013-05-09 04:28:00,46.6,39.1,30.11,North,357,0.0,0.0,75,0.00,,---,0.00,VWS V14.01,2013-05-09 11:28:00,
2013-05-09 04:33:00,46.6,39.1,30.11,North,357,0.0,0.0,75,0.00,,---,0.00,VWS V14.01,2013-05-09 11:33:00,
2013-05-09 04:38:00,46.6,39.1,30.11,North,357,0.0,0.0,75,0.00,,---,0.00,VWS V14.01,2013-05-09 11:38:00,
2013-05-09 04:44:00,46.4,38.9,30.11,NNE,16,0.0,0.0,75,0.00,,---,0.00,VWS V14.01,2013-05-09 11:44:00,
2013-05-09 04:49:00,46.6,39.1,30.11,NE,38,0.0,0.0,75,0.00,,---,0.00,VWS V14.01,2013-05-09 11:49:00,
2013-05-09 04:54:00,46.6,39.1,30.11,NE,38,0.0,0.0,75,0.00,,---,0.00,VWS V14.01,2013-05-09 11:54:00,
2013-05-09 04:59:00,46.6,39.6,30.11,NE,38,0.0,0.0,76,0.00,,---,0.00,VWS V14.01,2013-05-09 11:59:00,
2013-05-09 05:05:00,46.6,39.6,30.11,NE,38,0.0,0.0,76,0.00,,---,0.00,VWS V14.01,2013-05-09 12:05:00,
2013-05-09 05:10:00,46.8,39.8,30.11,NE,38,0.0,0.0,76,0.00,,---,0.00,VWS V14.01,2013-05-09 12:10:00,
2013-05-09 05:16:00,46.9,40.0,30.11,NE,38,0.0,0.0,76,0.00,,---,0.00,VWS V14.01,2013-05-09 12:16:00,
2013-05-09 05:21:00,47.1,40.1,30.11,NE,38,0.0,0.0,76,0.00,,---,0.00,VWS V14.01,2013-05-09 12:21:00,
2013-05-09 05:27:00,47.1,40.1,30.11,NE,38,0.0,0.0,76,0.00,,---,0.00,VWS V14.01,2013-05-09 12:27:00,
2013-05-09 05:33:00,47.1,40.1,30.11,NE,38,0.0,0.0,76,0.00,,---,0.00,VWS V14.01,2013-05-09 12:33:00,
2013-05-09 05:39:00,46.8,39.8,30.11,NE,38,0.0,0.0,76,0.00,,---,0.00,VWS V14.01,2013-05-09 12:39:00,
2013-05-09 05:44:00,46.6,39.1,30.11,NE,38,0.0,0.0,75,0.00,,---,0.00,VWS V14.01,2013-05-09 12:44:00,
2013-05-09 05:50:00,46.4,38.9,30.11,NE,42,3.6,3.6,75,0.00,,---,0.00,VWS V14.01,2013-05-09 12:50:00,
2013-05-09 05:56:00,46.4,39.4,30.11,NE,43,2.2,2.7,76,0.00,,---,0.00,VWS V14.01,2013-05-09 12:56:00,
2013-05-09 06:01:00,46.4,39.4,30.11,NE,43,0.0,0.0,76,0.00,,---,0.00,VWS V14.01,2013-05-09 13:01:00,
2013-05-09 06:07:00,46.4,39.4,30.11,ESE,107,0.0,0.0,76,0.00,,---,0.00,VWS V14.01,2013-05-09 13:07:00,
2013-05-09 06:12:00,46.2,39.2,30.11,ESE,115,0.0,0.0,76,0.00,,---,0.00,VWS V14.01,2013-05-09 13:12:00,
2013-05-09 06:17:00,46.6,39.6,30.11,SE,132,0.0,0.0,76,0.00,,---,0.00,VWS V14.01,2013-05-09 13:17:00,
2013-05-09 06:23:00,46.6,39.6,30.14,SE,132,0.0,0.0,76,0.00,,---,0.00,VWS V14.01,2013-05-09 13:23:00,
2013-05-09 06:28:00,46.6,39.6,30.14,SE,132,0.0,0.0,76,0.00,,---,0.00,VWS V14.01,2013-05-09 13:28:00,
2013-05-09 06:34:00,46.8,39.8,30.14,SE,132,0.0,0.0,76,0.00,,---,0.00,VWS V14.01,2013-05-09 13:34:00,
2013-05-09 06:39:00,46.8,39.8,30.14,SE,132,0.0,0.0,76,0.00,,---,0.00,VWS V14.01,2013-05-09 13:39:00,
2013-05-09 06:44:00,47.1,40.1,30.14,SE,132,0.0,0.0,76,0.00,,---,0.00,VWS V14.01,2013-05-09 13:44:00,
2013-05-09 06:50:00,47.3,40.3,30.14,SE,132,0.0,0.0,76,0.00,,---,0.00,VWS V14.01,2013-05-09 13:50:00,
2013-05-09 06:58:00,47.3,40.3,30.14,NE,53,2.2,3.6,76,0.00,,---,0.00,VWS V14.01,2013-05-09 13:58:00,
2013-05-09 07:03:00,47.5,40.5,30.14,NNE,16,2.7,2.7,76,0.00,,---,0.00,VWS V14.01,2013-05-09 14:03:00,
2013-05-09 07:08:00,47.7,40.7,30.14,North,10,0.0,0.0,76,0.00,,---,0.00,VWS V14.01,2013-05-09 14:08:00,
2013-05-09 07:13:00,48.2,41.2,30.14,NE,48,0.0,0.0,76,0.00,,---,0.00,VWS V14.01,2013-05-09 14:13:00,
2013-05-09 07:19:00,48.6,41.5,30.14,NNW,335,0.0,0.0,76,0.00,,---,0.00,VWS V14.01,2013-05-09 14:19:00,
2013-05-09 07:24:00,48.9,41.9,30.14,East,83,0.0,0.0,76,0.00,,---,0.00,VWS V14.01,2013-05-09 14:24:00,
2013-05-09 07:30:00,49.5,42.4,30.14,SE,134,0.0,0.0,76,0.00,,---,0.00,VWS V14.01,2013-05-09 14:30:00,
2013-05-09 07:35:00,49.8,42.7,30.14,South,173,0.0,0.0,76,0.00,,---,0.00,VWS V14.01,2013-05-09 14:35:00,
2013-05-09 07:40:00,50.2,43.1,30.14,SE,126,0.0,0.0,76,0.00,,---,0.00,VWS V14.01,2013-05-09 14:40:00,
2013-05-09 07:46:00,50.2,42.6,30.14,SE,126,0.0,0.0,75,0.00,,---,0.00,VWS V14.01,2013-05-09 14:46:00,
2013-05-09 07:51:00,50.9,43.3,30.14,North,10,0.0,0.0,75,0.00,,---,0.00,VWS V14.01,2013-05-09 14:51:00,
2013-05-09 07:57:00,51.6,44.0,30.14,North,0,0.0,0.0,75,0.00,,---,0.00,VWS V14.01,2013-05-09 14:57:00,
2013-05-09 08:02:00,53.2,45.5,30.14,West,279,0.0,0.0,75,0.00,,---,0.00,VWS V14.01,2013-05-09 15:02:00,
2013-05-09 08:07:00,53.2,44.5,30.14,NW,311,0.0,0.0,72,0.00,,---,0.00,VWS V14.01,2013-05-09 15:07:00,
2013-05-09 08:12:00,55.0,45.6,30.14,NNE,22,0.0,0.0,70,0.00,,---,0.00,VWS V14.01,2013-05-09 15:12:00,
2013-05-09 08:18:00,55.9,45.9,30.14,NNE,22,0.0,0.0,69,0.00,,---,0.00,VWS V14.01,2013-05-09 15:18:00,
2013-05-09 08:23:00,57.2,46.0,30.14,NNW,343,4.0,4.0,66,0.00,,---,0.00,VWS V14.01,2013-05-09 15:23:00,
2013-05-09 08:30:00,58.1,45.0,30.14,NW,310,4.0,5.8,62,0.00,,---,0.00,VWS V14.01,2013-05-09 15:30:00,
2013-05-09 08:35:00,58.5,44.0,30.14,SW,222,6.3,6.3,58,0.00,,---,0.00,VWS V14.01,2013-05-09 15:35:00,
2013-05-09 08:40:00,58.8,42.9,30.14,NW,321,8.1,8.7,56,0.00,,---,0.00,VWS V14.01,2013-05-09 15:40:00,
2013-05-09 08:47:00,58.6,42.1,30.14,WSW,244,8.7,9.2,54,0.00,,---,0.00,VWS V14.01,2013-05-09 15:47:00,
2013-05-09 08:52:00,59.0,41.7,30.14,SW,232,8.1,8.1,52,0.00,,---,0.00,VWS V14.01,2013-05-09 15:52:00,
2013-05-09 08:58:00,59.7,41.6,30.14,SW,235,8.1,10.1,51,0.00,,---,0.00,VWS V14.01,2013-05-09 15:58:00,
2013-05-09 09:03:00,60.3,42.1,30.14,West,259,4.0,8.1,51,0.00,,---,0.00,VWS V14.01,2013-05-09 16:03:00,
2013-05-09 09:08:00,60.6,40.8,30.14,WNW,284,4.9,8.7,48,0.00,,---,0.00,VWS V14.01,2013-05-09 16:08:00,
2013-05-09 09:14:00,61.3,40.7,30.14,West,267,10.5,10.5,46,0.00,,---,0.00,VWS V14.01,2013-05-09 16:14:00,
2013-05-09 09:19:00,60.6,39.2,30.14,West,271,8.1,10.1,45,0.00,,---,0.00,VWS V14.01,2013-05-09 16:19:00,
2013-05-09 09:25:00,61.3,39.0,30.14,West,274,3.6,6.3,44,0.00,,---,0.00,VWS V14.01,2013-05-09 16:25:00,
2013-05-09 09:30:00,61.9,38.6,30.14,SW,227,7.6,10.5,42,0.00,,---,0.00,VWS V14.01,2013-05-09 16:30:00,
2013-05-09 09:36:00,63.0,38.6,30.14,SW,228,10.5,10.5,40,0.00,,---,0.00,VWS V14.01,2013-05-09 16:36:00,
2013-05-09 09:41:00,63.0,38.6,30.14,WNW,295,5.8,8.1,40,0.00,,---,0.00,VWS V14.01,2013-05-09 16:41:00,
2013-05-09 09:47:00,62.6,37.3,30.14,West,281,2.7,8.3,39,0.00,,---,0.00,VWS V14.01,2013-05-09 16:47:00,
2013-05-09 09:53:00,62.2,38.0,30.14,WSW,258,10.5,10.5,40,0.00,,---,0.00,VWS V14.01,2013-05-09 16:53:00,
2013-05-09 09:58:00,62.6,37.3,30.14,West,274,10.1,10.5,39,0.00,,---,0.00,VWS V14.01,2013-05-09 16:58:00,
2013-05-09 10:03:00,63.1,37.8,30.14,WNW,290,7.6,10.5,39,0.00,,---,0.00,VWS V14.01,2013-05-09 17:03:00,
2013-05-09 10:09:00,64.2,38.8,30.14,West,277,10.1,10.5,39,0.00,,---,0.00,VWS V14.01,2013-05-09 17:09:00,
2013-05-09 10:15:00,64.4,37.9,30.14,West,267,3.6,6.3,38,0.00,,---,0.00,VWS V14.01,2013-05-09 17:15:00,
2013-05-09 10:20:00,64.8,38.2,30.14,SW,223,11.0,13.2,38,0.00,,---,0.00,VWS V14.01,2013-05-09 17:20:00,
2013-05-09 10:26:00,64.8,38.2,30.14,SSW,209,5.8,9.2,38,0.00,,---,0.00,VWS V14.01,2013-05-09 17:26:00,
2013-05-09 10:31:00,65.7,38.0,30.14,SW,236,6.3,7.6,36,0.00,,---,0.00,VWS V14.01,2013-05-09 17:31:00,
2013-05-09 10:36:00,64.8,37.2,30.14,West,261,7.6,8.7,36,0.00,,---,0.00,VWS V14.01,2013-05-09 17:36:00,
2013-05-09 10:41:00,64.2,36.7,30.14,West,269,7.6,10.5,36,0.00,,---,0.00,VWS V14.01,2013-05-09 17:41:00,
2013-05-09 10:47:00,65.7,38.0,30.14,West,264,7.2,8.7,36,0.00,,---,0.00,VWS V14.01,2013-05-09 17:47:00,
2013-05-09 10:53:00,65.7,38.0,30.14,SW,224,11.0,11.0,36,0.00,,---,0.00,VWS V14.01,2013-05-09 17:53:00,
2013-05-09 10:59:00,66.0,38.3,30.14,WSW,254,11.4,11.4,36,0.00,,---,0.00,VWS V14.01,2013-05-09 17:59:00,
2013-05-09 11:04:00,66.4,37.6,30.14,WSW,256,4.9,5.4,34,0.00,,---,0.00,VWS V14.01,2013-05-09 18:04:00,
2013-05-09 11:10:00,66.2,37.4,30.14,West,262,8.1,8.7,34,0.00,,---,0.00,VWS V14.01,2013-05-09 18:10:00,
2013-05-09 11:16:00,66.9,38.0,30.14,WSW,244,12.8,15.4,34,0.00,,---,0.00,VWS V14.01,2013-05-09 18:16:00,
2013-05-09 11:21:00,67.8,38.8,30.14,West,259,10.1,10.1,34,0.00,,---,0.00,VWS V14.01,2013-05-09 18:21:00,
2013-05-09 11:27:00,67.6,38.7,30.14,SW,233,12.8,12.8,34,0.00,,---,0.00,VWS V14.01,2013-05-09 18:27:00,
2013-05-09 11:32:00,67.5,38.5,30.14,WSW,246,8.7,10.5,34,0.00,,---,0.00,VWS V14.01,2013-05-09 18:32:00,
2013-05-09 11:37:00,67.8,38.8,30.14,West,260,10.5,12.8,34,0.00,,---,0.00,VWS V14.01,2013-05-09 18:37:00,
2013-05-09 11:43:00,66.6,37.7,30.14,WNW,298,15.4,15.4,34,0.00,,---,0.00,VWS V14.01,2013-05-09 18:43:00,
2013-05-09 11:48:00,65.8,37.1,30.14,SW,228,11.0,11.0,34,0.00,,---,0.00,VWS V14.01,2013-05-09 18:48:00,
2013-05-09 11:53:00,65.8,37.1,30.14,NNW,331,5.4,7.2,34,0.00,,---,0.00,VWS V14.01,2013-05-09 18:53:00,
2013-05-09 11:58:00,66.6,37.7,30.14,SW,233,10.5,10.5,34,0.00,,---,0.00,VWS V14.01,2013-05-09 18:58:00,
2013-05-09 12:03:00,66.7,37.9,30.14,West,264,5.8,11.0,34,0.00,,---,0.00,VWS V14.01,2013-05-09 19:03:00,
2013-05-09 12:08:00,66.2,37.4,30.14,WNW,294,6.3,8.1,34,0.00,,---,0.00,VWS V14.01,2013-05-09 19:08:00,
2013-05-09 12:13:00,66.2,37.4,30.14,NW,316,10.5,12.8,34,0.00,,---,0.00,VWS V14.01,2013-05-09 19:13:00,
2013-05-09 12:18:00,66.2,37.4,30.14,WNW,292,11.0,13.2,34,0.00,,---,0.00,VWS V14.01,2013-05-09 19:18:00,
2013-05-09 12:23:00,66.2,37.4,30.14,NW,318,9.2,9.2,34,0.00,,---,0.00,VWS V14.01,2013-05-09 19:23:00,
2013-05-09 12:29:00,67.5,38.5,30.14,WSW,241,12.8,14.5,34,0.00,,---,0.00,VWS V14.01,2013-05-09 19:29:00,
2013-05-09 12:34:00,67.8,38.8,30.14,WNW,288,12.8,12.8,34,0.00,,---,0.00,VWS V14.01,2013-05-09 19:34:00,
2013-05-09 12:40:00,66.9,38.0,30.14,NW,304,11.4,11.4,34,0.00,,---,0.00,VWS V14.01,2013-05-09 19:40:00,
2013-05-09 12:45:00,66.6,37.7,30.14,North,353,9.6,9.6,34,0.00,,---,0.00,VWS V14.01,2013-05-09 19:45:00,
2013-05-09 12:51:00,66.9,38.0,30.14,WSW,252,8.3,8.3,34,0.00,,---,0.00,VWS V14.01,2013-05-09 19:51:00,
2013-05-09 12:57:00,67.5,38.5,30.14,West,280,4.0,13.2,34,0.00,,---,0.00,VWS V14.01,2013-05-09 19:57:00,
2013-05-09 13:02:00,68.2,38.0,30.14,WNW,291,8.3,13.2,33,0.00,,---,0.00,VWS V14.01,2013-05-09 20:02:00,
2013-05-09 13:08:00,68.4,38.2,30.14,WSW,244,7.6,11.4,33,0.00,,---,0.00,VWS V14.01,2013-05-09 20:08:00,
2013-05-09 13:13:00,68.0,37.8,30.14,West,272,12.3,12.3,33,0.00,,---,0.00,VWS V14.01,2013-05-09 20:13:00,
2013-05-09 13:19:00,68.2,38.0,30.14,WNW,283,8.3,8.7,33,0.00,,---,0.00,VWS V14.01,2013-05-09 20:19:00,
2013-05-09 13:25:00,68.4,38.2,30.14,WNW,294,5.4,8.7,33,0.00,,---,0.00,VWS V14.01,2013-05-09 20:25:00,
2013-05-09 13:31:00,69.3,39.0,30.14,NW,306,11.0,14.1,33,0.00,,---,0.00,VWS V14.01,2013-05-09 20:31:00,
2013-05-09 13:37:00,70.3,39.9,30.14,West,260,10.5,17.0,33,0.00,,---,0.00,VWS V14.01,2013-05-09 20:37:00,
2013-05-09 13:42:00,70.0,39.6,30.11,SW,236,8.3,10.1,33,0.00,,---,0.00,VWS V14.01,2013-05-09 20:42:00,
2013-05-09 13:48:00,68.9,36.2,30.11,WNW,299,10.1,13.2,30,0.00,,---,0.00,VWS V14.01,2013-05-09 20:48:00,
2013-05-09 13:54:00,68.9,38.6,30.11,WNW,282,15.4,15.9,33,0.00,,---,0.00,VWS V14.01,2013-05-09 20:54:00,
2013-05-09 13:59:00,69.1,36.4,30.11,NW,307,7.6,8.7,30,0.00,,---,0.00,VWS V14.01,2013-05-09 20:59:00,
2013-05-09 14:05:00,68.9,38.6,30.11,West,268,11.4,11.4,33,0.00,,---,0.00,VWS V14.01,2013-05-09 21:05:00,
2013-05-09 14:10:00,68.4,38.2,30.11,West,259,15.0,15.0,33,0.00,,---,0.00,VWS V14.01,2013-05-09 21:10:00,
2013-05-09 14:16:00,68.4,38.2,30.11,WNW,299,6.3,8.7,33,0.00,,---,0.00,VWS V14.01,2013-05-09 21:16:00,
2013-05-09 14:21:00,69.8,39.4,30.11,West,276,15.0,15.0,33,0.00,,---,0.00,VWS V14.01,2013-05-09 21:21:00,
2013-05-09 14:27:00,69.6,39.3,30.11,West,274,10.1,12.8,33,0.00,,---,0.00,VWS V14.01,2013-05-09 21:27:00,
2013-05-09 14:32:00,69.4,39.1,30.11,WSW,248,8.3,15.9,33,0.00,,---,0.00,VWS V14.01,2013-05-09 21:32:00,
2013-05-09 14:38:00,69.8,39.4,30.11,West,262,13.6,14.5,33,0.00,,---,0.00,VWS V14.01,2013-05-09 21:38:00,
2013-05-09 14:44:00,70.5,40.1,30.11,WSW,253,15.0,15.0,33,0.00,,---,0.00,VWS V14.01,2013-05-09 21:44:00,
2013-05-09 14:49:00,71.1,40.5,30.11,SSW,201,8.3,12.3,33,0.00,,---,0.00,VWS V14.01,2013-05-09 21:49:00,
2013-05-09 14:55:00,71.2,40.7,30.11,SW,214,15.0,17.4,33,0.00,,---,0.00,VWS V14.01,2013-05-09 21:55:00,
2013-05-09 15:00:00,70.3,36.2,30.11,West,276,5.4,11.0,28,0.00,,---,0.00,VWS V14.01,2013-05-09 22:00:00,
2013-05-09 15:05:00,70.2,39.7,30.11,WNW,299,10.1,12.3,33,0.00,,---,0.00,VWS V14.01,2013-05-09 22:05:00,
2013-05-09 15:11:00,70.5,40.1,30.11,WSW,253,18.8,18.8,33,0.00,,---,0.00,VWS V14.01,2013-05-09 22:11:00,
2013-05-09 15:17:00,70.7,40.2,30.11,West,270,12.3,12.3,33,0.00,,---,0.00,VWS V14.01,2013-05-09 22:17:00,
2013-05-09 15:22:00,69.3,36.5,30.11,NW,307,11.0,14.1,30,0.00,,---,0.00,VWS V14.01,2013-05-09 22:22:00,
2013-05-09 15:28:00,68.9,38.6,30.11,West,262,8.3,12.3,33,0.00,,---,0.00,VWS V14.01,2013-05-09 22:28:00,
2013-05-09 15:33:00,69.4,39.1,30.11,NW,311,13.2,13.2,33,0.00,,---,0.00,VWS V14.01,2013-05-09 22:33:00,
2013-05-09 15:38:00,69.4,39.1,30.11,SW,236,13.2,13.2,33,0.00,,---,0.00,VWS V14.01,2013-05-09 22:38:00,
2013-05-09 15:43:00,70.9,40.4,30.08,SW,228,17.4,17.4,33,0.00,,---,0.00,VWS V14.01,2013-05-09 22:43:00,
2013-05-09 15:49:00,70.3,39.9,30.08,West,262,8.7,8.7,33,0.00,,---,0.00,VWS V14.01,2013-05-09 22:49:00,
2013-05-09 15:55:00,68.2,38.0,30.08,West,264,7.2,12.3,33,0.00,,---,0.00,VWS V14.01,2013-05-09 22:55:00,
2013-05-09 16:01:00,66.7,36.8,30.08,NW,310,10.5,10.5,33,0.00,,---,0.00,VWS V14.01,2013-05-09 23:01:00,
2013-05-09 16:06:00,67.1,38.2,30.08,West,262,12.8,15.0,34,0.00,,---,0.00,VWS V14.01,2013-05-09 23:06:00,
2013-05-09 16:12:00,67.1,38.2,30.11,WNW,303,7.6,8.7,34,0.00,,---,0.00,VWS V14.01,2013-05-09 23:12:00,
2013-05-09 16:18:00,66.9,38.0,30.11,WNW,293,8.1,11.0,34,0.00,,---,0.00,VWS V14.01,2013-05-09 23:18:00,
2013-05-09 16:23:00,67.6,38.7,30.11,WSW,245,10.5,11.0,34,0.00,,---,0.00,VWS V14.01,2013-05-09 23:23:00,
2013-05-09 16:29:00,68.5,39.5,30.08,WSW,249,10.1,13.2,34,0.00,,---,0.00,VWS V14.01,2013-05-09 23:29:00,
2013-05-09 16:34:00,68.0,39.0,30.08,West,261,7.6,10.1,34,0.00,,---,0.00,VWS V14.01,2013-05-09 23:34:00,
2013-05-09 16:39:00,68.5,39.5,30.11,WSW,254,8.1,12.8,34,0.00,,---,0.00,VWS V14.01,2013-05-09 23:39:00,
2013-05-09 16:45:00,68.2,39.1,30.11,NW,305,7.6,10.5,34,0.00,,---,0.00,VWS V14.01,2013-05-09 23:45:00,
2013-05-09 16:50:00,68.7,39.6,30.11,NW,305,12.3,12.8,34,0.00,,---,0.00,VWS V14.01,2013-05-09 23:50:00,
2013-05-09 16:56:00,67.5,38.5,30.11,NNW,327,12.3,13.2,34,0.00,,---,0.00,VWS V14.01,2013-05-09 23:56:00,
2013-05-09 17:02:00,66.6,37.7,30.11,NW,305,10.1,10.5,34,0.00,,---,0.00,VWS V14.01,2013-05-10 00:02:00,
2013-05-09 17:07:00,67.6,39.8,30.11,WNW,291,6.3,8.7,36,0.00,,---,0.00,VWS V14.01,2013-05-10 00:07:00,
2013-05-09 17:13:00,67.1,39.3,30.11,West,264,5.8,8.7,36,0.00,,---,0.00,VWS V14.01,2013-05-10 00:13:00,
2013-05-09 17:18:00,67.3,39.4,30.11,WNW,297,5.8,11.0,36,0.00,,---,0.00,VWS V14.01,2013-05-10 00:18:00,
2013-05-09 17:24:00,65.8,38.2,30.11,NW,305,6.3,8.1,36,0.00,,---,0.00,VWS V14.01,2013-05-10 00:24:00,
2013-05-09 17:29:00,65.8,38.2,30.11,WSW,254,5.4,8.1,36,0.00,,---,0.00,VWS V14.01,2013-05-10 00:29:00,
2013-05-09 17:35:00,65.8,38.2,30.11,WSW,243,5.8,7.6,36,0.00,,---,0.00,VWS V14.01,2013-05-10 00:35:00,
2013-05-09 17:40:00,65.5,37.8,30.11,West,277,12.8,12.8,36,0.00,,---,0.00,VWS V14.01,2013-05-10 00:40:00,
2013-05-09 17:46:00,64.2,37.8,30.11,West,271,10.1,10.1,38,0.00,,---,0.00,VWS V14.01,2013-05-10 00:46:00,
2013-05-09 17:51:00,63.5,38.1,30.11,WSW,245,8.7,10.5,39,0.00,,---,0.00,VWS V14.01,2013-05-10 00:51:00,
2013-05-09 17:56:00,63.1,37.8,30.11,West,264,8.3,10.1,39,0.00,,---,0.00,VWS V14.01,2013-05-10 00:56:00,
2013-05-09 18:02:00,61.7,37.5,30.11,West,262,12.8,13.6,40,0.00,,---,0.00,VWS V14.01,2013-05-10 01:02:00,
2013-05-09 18:08:00,60.8,36.7,30.11,WNW,293,10.5,11.0,40,0.00,,---,0.00,VWS V14.01,2013-05-10 01:08:00,
2013-05-09 18:13:00,59.9,37.7,30.11,WNW,297,8.1,10.1,44,0.00,,---,0.00,VWS V14.01,2013-05-10 01:13:00,
2013-05-09 18:19:00,59.9,38.5,30.11,West,263,5.8,7.6,45,0.00,,---,0.00,VWS V14.01,2013-05-10 01:19:00,
2013-05-09 18:24:00,59.5,38.2,30.11,WNW,294,4.9,6.3,45,0.00,,---,0.00,VWS V14.01,2013-05-10 01:24:00,
2013-05-09 18:29:00,59.2,38.7,30.11,WNW,294,7.2,8.7,46,0.00,,---,0.00,VWS V14.01,2013-05-10 01:29:00,
2013-05-09 18:34:00,58.8,40.0,30.11,NW,316,11.0,11.0,50,0.00,,---,0.00,VWS V14.01,2013-05-10 01:34:00,
2013-05-09 18:40:00,58.5,40.4,30.11,WNW,302,8.3,10.1,51,0.00,,---,0.00,VWS V14.01,2013-05-10 01:40:00,
2013-05-09 18:45:00,58.1,40.8,30.11,NW,310,7.6,10.1,52,0.00,,---,0.00,VWS V14.01,2013-05-10 01:45:00,
2013-05-09 18:51:00,58.1,40.8,30.11,NW,308,11.4,11.4,52,0.00,,---,0.00,VWS V14.01,2013-05-10 01:51:00,
2013-05-09 18:56:00,57.6,40.3,30.11,NW,318,8.3,11.0,52,0.00,,---,0.00,VWS V14.01,2013-05-10 01:56:00,
2013-05-09 19:02:00,57.4,40.2,30.11,West,268,8.7,10.5,52,0.00,,---,0.00,VWS V14.01,2013-05-10 02:02:00,
2013-05-09 19:07:00,57.0,40.6,30.11,WNW,296,10.1,10.1,54,0.00,,---,0.00,VWS V14.01,2013-05-10 02:07:00,
2013-05-09 19:13:00,57.0,40.6,30.11,NW,307,7.2,8.1,54,0.00,,---,0.00,VWS V14.01,2013-05-10 02:13:00,
2013-05-09 19:18:00,57.4,40.9,30.11,WNW,285,7.6,7.6,54,0.00,,---,0.00,VWS V14.01,2013-05-10 02:18:00,
2013-05-09 19:23:00,56.8,41.1,30.11,NNW,329,13.2,15.0,56,0.00,,---,0.00,VWS V14.01,2013-05-10 02:23:00,
2013-05-09 19:28:00,56.1,40.4,30.11,NW,318,12.8,15.4,56,0.00,,---,0.00,VWS V14.01,2013-05-10 02:28:00,
2013-05-09 19:33:00,55.8,40.8,30.11,NNW,328,8.3,11.9,57,0.00,,---,0.00,VWS V14.01,2013-05-10 02:33:00,
2013-05-09 19:39:00,55.9,40.9,30.14,NW,310,7.6,8.3,57,0.00,,---,0.00,VWS V14.01,2013-05-10 02:39:00,
2013-05-09 19:44:00,55.9,40.9,30.14,West,273,4.0,8.7,57,0.00,,---,0.00,VWS V14.01,2013-05-10 02:44:00,
2013-05-09 19:50:00,56.1,41.1,30.14,WNW,296,5.4,7.6,57,0.00,,---,0.00,VWS V14.01,2013-05-10 02:50:00,
2013-05-09 19:56:00,56.3,41.3,30.14,WSW,258,8.3,8.3,57,0.00,,---,0.00,VWS V14.01,2013-05-10 02:56:00,
2013-05-09 20:02:00,56.3,41.3,30.14,West,270,8.1,10.5,57,0.00,,---,0.00,VWS V14.01,2013-05-10 03:02:00,
2013-05-09 20:07:00,56.1,41.1,30.14,West,268,7.6,8.7,57,0.00,,---,0.00,VWS V14.01,2013-05-10 03:07:00,
2013-05-09 20:13:00,55.9,41.6,30.14,West,270,10.5,10.5,58,0.00,,---,0.00,VWS V14.01,2013-05-10 03:13:00,
2013-05-09 20:18:00,55.8,41.4,30.14,West,264,8.1,10.1,58,0.00,,---,0.00,VWS V14.01,2013-05-10 03:18:00,
2013-05-09 20:23:00,55.8,41.4,30.14,WSW,251,5.4,7.6,58,0.00,,---,0.00,VWS V14.01,2013-05-10 03:23:00,
2013-05-09 20:29:00,55.8,41.4,30.14,WSW,245,5.8,7.6,58,0.00,,---,0.00,VWS V14.01,2013-05-10 03:29:00,
2013-05-09 20:34:00,55.8,41.4,30.14,SW,235,4.9,5.4,58,0.00,,---,0.00,VWS V14.01,2013-05-10 03:34:00,
2013-05-09 20:39:00,55.8,41.4,30.14,SSW,197,3.1,4.0,58,0.00,,---,0.00,VWS V14.01,2013-05-10 03:39:00,
2013-05-09 20:44:00,55.8,42.1,30.14,South,173,0.0,2.2,60,0.00,,---,0.00,VWS V14.01,2013-05-10 03:44:00,
2013-05-09 20:50:00,55.8,42.1,30.14,West,260,7.6,7.6,60,0.00,,---,0.00,VWS V14.01,2013-05-10 03:50:00,
2013-05-09 20:56:00,55.6,41.9,30.14,WSW,255,8.1,8.7,60,0.00,,---,0.00,VWS V14.01,2013-05-10 03:56:00,
2013-05-09 21:01:00,55.4,41.8,30.14,WNW,288,11.0,13.2,60,0.00,,---,0.00,VWS V14.01,2013-05-10 04:01:00,
2013-05-09 21:02:00,55.2,42.2,30.14,WSW,252,10.5,11.0,62,0.00,,---,0.00,VWS V14.01,2013-05-10 04:02:00,
2013-05-09 21:03:00,55.2,42.2,30.14,WSW,255,13.2,15.4,62,0.00,,---,0.00,VWS V14.01,2013-05-10 04:03:00,
2013-05-09 21:04:00,55.0,42.1,30.14,WSW,252,10.5,13.6,62,0.00,,---,0.00,VWS V14.01,2013-05-10 04:04:00,
2013-05-09 21:09:00,54.9,42.5,30.14,WSW,237,11.0,12.3,63,0.00,,---,0.00,VWS V14.01,2013-05-10 04:09:00,
2013-05-09 21:11:00,54.7,43.0,30.14,SW,226,10.5,12.8,64,0.00,,---,0.00,VWS V14.01,2013-05-10 04:11:00,
2013-05-09 21:17:00,54.5,43.4,30.14,WSW,243,8.7,13.2,66,0.00,,---,0.00,VWS V14.01,2013-05-10 04:17:00,
2013-05-09 21:22:00,54.5,44.0,30.14,West,273,8.3,11.0,68,0.00,,---,0.00,VWS V14.01,2013-05-10 04:22:00,
2013-05-09 21:28:00,54.3,44.4,30.14,West,271,6.3,8.3,69,0.00,,---,0.00,VWS V14.01,2013-05-10 04:28:00,
2013-05-09 21:33:00,54.3,44.4,30.14,SW,222,4.9,5.4,69,0.00,,---,0.00,VWS V14.01,2013-05-10 04:33:00,
2013-05-09 21:39:00,54.5,45.1,30.14,NW,315,5.4,5.8,70,0.00,,---,0.00,VWS V14.01,2013-05-10 04:39:00,
2013-05-09 21:45:00,54.3,44.4,30.14,NNW,344,5.8,6.3,69,0.00,,---,0.00,VWS V14.01,2013-05-10 04:45:00,
2013-05-09 21:51:00,54.3,44.4,30.14,NNE,28,3.1,5.8,69,0.00,,---,0.00,VWS V14.01,2013-05-10 04:51:00,
2013-05-09 21:56:00,54.5,44.5,30.14,NE,34,0.0,0.0,69,0.00,,---,0.00,VWS V14.01,2013-05-10 04:56:00,
2013-05-09 22:02:00,54.5,44.5,30.14,SSE,162,6.3,8.7,69,0.00,,---,0.00,VWS V14.01,2013-05-10 05:02:00,
2013-05-09 22:07:00,54.3,44.4,30.14,SE,134,5.4,5.4,69,0.00,,---,0.00,VWS V14.01,2013-05-10 05:07:00,
2013-05-09 22:13:00,54.3,44.4,30.14,SE,138,5.4,5.8,69,0.00,,---,0.00,VWS V14.01,2013-05-10 05:13:00,
2013-05-09 22:18:00,54.3,44.4,30.14,SE,143,6.3,7.6,69,0.00,,---,0.00,VWS V14.01,2013-05-10 05:18:00,
2013-05-09 22:24:00,54.3,44.4,30.14,SE,124,4.9,5.8,69,0.00,,---,0.00,VWS V14.01,2013-05-10 05:24:00,
2013-05-09 22:29:00,54.3,44.4,30.14,NE,39,3.6,5.4,69,0.00,,---,0.00,VWS V14.01,2013-05-10 05:29:00,
2013-05-09 22:35:00,54.1,44.2,30.14,NNE,23,4.0,5.4,69,0.00,,---,0.00,VWS V14.01,2013-05-10 05:35:00,
2013-05-09 22:41:00,54.0,43.5,30.14,North,1,4.9,4.9,68,0.00,,---,0.00,VWS V14.01,2013-05-10 05:41:00,
2013-05-09 22:47:00,53.8,43.9,30.14,North,6,3.1,3.1,69,0.00,,---,0.00,VWS V14.01,2013-05-10 05:47:00,
2013-05-09 22:53:00,53.6,43.7,30.14,North,2,4.0,4.0,69,0.00,,---,0.00,VWS V14.01,2013-05-10 05:53:00,
2013-05-09 22:59:00,53.4,43.5,30.14,North,5,3.1,3.1,69,0.00,,---,0.00,VWS V14.01,2013-05-10 05:59:00,
2013-05-09 23:04:00,53.4,43.5,30.14,North,5,0.0,0.0,69,0.00,,---,0.00,VWS V14.01,2013-05-10 06:04:00,
2013-05-09 23:10:00,53.6,43.7,30.14,ENE,78,4.0,4.0,69,0.00,,---,0.00,VWS V14.01,2013-05-10 06:10:00,
2013-05-09 23:15:00,53.6,43.7,30.14,ENE,57,3.6,4.9,69,0.00,,---,0.00,VWS V14.01,2013-05-10 06:15:00,
2013-05-09 23:21:00,53.2,43.3,30.14,NE,36,2.2,2.2,69,0.00,,---,0.00,VWS V14.01,2013-05-10 06:21:00,
2013-05-09 23:26:00,53.1,43.2,30.14,NNE,12,2.7,3.6,69,0.00,,---,0.00,VWS V14.01,2013-05-10 06:26:00,
2013-05-09 23:31:00,52.9,43.0,30.14,NNE,27,2.7,3.1,69,0.00,,---,0.00,VWS V14.01,2013-05-10 06:31:00,
2013-05-09 23:36:00,52.5,42.7,30.14,North,357,2.7,3.6,69,0.00,,---,0.00,VWS V14.01,2013-05-10 06:36:00,
2013-05-09 23:42:00,52.3,42.5,30.14,NE,41,0.0,0.0,69,0.00,,---,0.00,VWS V14.01,2013-05-10 06:42:00,
2013-05-09 23:47:00,52.2,42.3,30.14,NE,41,0.0,0.0,69,0.00,,---,0.00,VWS V14.01,2013-05-10 06:47:00,
2013-05-09 23:52:00,52.2,42.3,30.14,NE,41,0.0,0.0,69,0.00,,---,0.00,VWS V14.01,2013-05-10 06:52:00,
2013-05-09 23:58:00,51.8,42.0,30.14,NE,41,0.0,0.0,69,0.00,,---,0.00,VWS V14.01,2013-05-10 06:58:00,